Hourly Weather Qusar

Today, 15 April, Thursday

Time Temperature Precipitation Wind Pressure Humidity
00:00 +8°C° 0 mm 2 mps 702 mmHg 71%
01:00 +8°C° 0 mm 2 mps 702 mmHg 69%
02:00 +7°C° 0 mm 2 mps 702 mmHg 68%
03:00 +7°C° 0 mm 3 mps 702 mmHg 66%
04:00 +8°C° 0 mm 3 mps 702 mmHg 64%
05:00 +8°C° 0 mm 3 mps 702 mmHg 62%
06:00 +8°C° 0 mm 3 mps 702 mmHg 60%
07:00 +10°C° 0 mm 3 mps 702 mmHg 57%
08:00 +12°C° 0 mm 3 mps 703 mmHg 54%
09:00 +14°C° 0 mm 3 mps 703 mmHg 50%
10:00 +14°C° 0 mm 4 mps 703 mmHg 50%
11:00 +15°C° 0 mm 4 mps 703 mmHg 49%
12:00 +16°C° 0 mm 5 mps 703 mmHg 49%
13:00 +15°C° 0 mm 4 mps 703 mmHg 51%
14:00 +15°C° 0 mm 4 mps 703 mmHg 54%
15:00 +15°C° 0 mm 4 mps 703 mmHg 56%
16:00 +13°C° 0 mm 3 mps 703 mmHg 62%
17:00 +13°C° 0 mm 2 mps 703 mmHg 68%
18:00 +12°C° 0 mm 2 mps 703 mmHg 74%
19:00 +11°C° 0 mm 1 mps 704 mmHg 72%
20:00 +11°C° 0 mm 1 mps 704 mmHg 71%
21:00 +11°C° 0 mm 1 mps 704 mmHg 69%
22:00 +10°C° 0 mm 2 mps 704 mmHg 65%
23:00 +10°C° 0 mm 2 mps 704 mmHg 60%

Tomorrow, 16 April, Friday

Time Temperature Precipitation Wind Pressure Humidity
00:00 +10°C° 0 mm 2 mps 703 mmHg 55%
01:00 +10°C° 0 mm 2 mps 703 mmHg 53%
02:00 +10°C° 0 mm 2 mps 703 mmHg 51%
03:00 +10°C° 0 mm 2 mps 703 mmHg 49%
04:00 +10°C° 0 mm 2 mps 704 mmHg 49%
05:00 +10°C° 0 mm 2 mps 704 mmHg 49%
06:00 +10°C° 0 mm 2 mps 705 mmHg 49%
07:00 +13°C° 0 mm 2 mps 705 mmHg 45%
08:00 +15°C° 0 mm 2 mps 705 mmHg 41%
09:00 +17°C° 0 mm 2 mps 706 mmHg 37%
10:00 +17°C° 0 mm 3 mps 706 mmHg 39%
11:00 +18°C° 0 mm 4 mps 705 mmHg 40%
12:00 +18°C° 0 mm 4 mps 705 mmHg 41%
13:00 +18°C° 0 mm 4 mps 705 mmHg 44%
14:00 +18°C° 0 mm 4 mps 705 mmHg 46%
15:00 +17°C° 0 mm 4 mps 705 mmHg 48%
16:00 +16°C° 0 mm 3 mps 705 mmHg 56%
17:00 +14°C° 0 mm 2 mps 705 mmHg 63%
18:00 +13°C° 0 mm 1 mps 704 mmHg 71%
19:00 +12°C° 0 mm 1 mps 704 mmHg 72%
20:00 +12°C° 0 mm 1 mps 704 mmHg 73%
21:00 +11°C° 0 mm 1 mps 704 mmHg 73%
22:00 +11°C° 0 mm 1 mps 704 mmHg 70%
23:00 +11°C° 0 mm 1 mps 704 mmHg 67%

Day after tomorrow, 17 April, Saturday

Time Temperature Precipitation Wind Pressure Humidity
00:00 +10°C° 0 mm 2 mps 704 mmHg 63%
01:00 +10°C° 0 mm 2 mps 704 mmHg 60%
02:00 +10°C° 0 mm 2 mps 704 mmHg 57%
03:00 +10°C° 0 mm 2 mps 704 mmHg 55%
04:00 +12°C° 0 mm 2 mps 704 mmHg 54%
05:00 +12°C° 0 mm 2 mps 704 mmHg 53%
06:00 +12°C° 0 mm 2 mps 704 mmHg 52%
07:00 +15°C° 0 mm 2 mps 704 mmHg 48%
08:00 +17°C° 0 mm 2 mps 704 mmHg 45%
09:00 +19°C° 0 mm 2 mps 704 mmHg 41%
10:00 +19°C° 0 mm 2 mps 704 mmHg 43%
11:00 +20°C° 0 mm 3 mps 704 mmHg 44%
12:00 +21°C° 0 mm 3 mps 704 mmHg 45%
13:00 +20°C° 0 mm 3 mps 704 mmHg 47%
14:00 +20°C° 0 mm 3 mps 704 mmHg 50%
15:00 +19°C° 0 mm 4 mps 704 mmHg 53%
16:00 +18°C° 0 mm 3 mps 704 mmHg 59%
17:00 +16°C° 0 mm 2 mps 704 mmHg 66%
18:00 +14°C° 0 mm 2 mps 704 mmHg 73%
19:00 +14°C° 0 mm 2 mps 705 mmHg 71%
20:00 +14°C° 0 mm 2 mps 705 mmHg 70%
21:00 +13°C° 0 mm 2 mps 706 mmHg 68%
22:00 +13°C° 0 mm 2 mps 706 mmHg 69%
23:00 +13°C° 0 mm 2 mps 705 mmHg 69%

18 April, Sunday

Time Temperature Precipitation Wind Pressure Humidity
00:00 +12°C° 0 mm 1 mps 705 mmHg 70%
01:00 +12°C° 0 mm 1 mps 705 mmHg 71%
02:00 +12°C° 0 mm 1 mps 705 mmHg 72%
03:00 +11°C° 0 mm 1 mps 705 mmHg 73%
04:00 +11°C° 0 mm 1 mps 705 mmHg 73%
05:00 +12°C° 0 mm 1 mps 705 mmHg 74%
06:00 +12°C° 0 mm 1 mps 705 mmHg 75%
07:00 +13°C° 0 mm 1 mps 705 mmHg 72%
08:00 +14°C° 0 mm 1 mps 705 mmHg 69%
09:00 +14°C° 0 mm 2 mps 705 mmHg 66%
10:00 +15°C° 0 mm 2 mps 704 mmHg 65%
11:00 +16°C° 0 mm 2 mps 704 mmHg 64%
12:00 +16°C° 0 mm 3 mps 704 mmHg 63%
13:00 +16°C° 0 mm 3 mps 703 mmHg 63%
14:00 +16°C° 0 mm 3 mps 703 mmHg 63%
15:00 +16°C° 0 mm 3 mps 703 mmHg 63%
16:00 +15°C° 0 mm 2 mps 703 mmHg 67%
17:00 +14°C° 0 mm 1 mps 703 mmHg 70%
18:00 +13°C° 0 mm 1 mps 703 mmHg 74%
19:00 +13°C° 0 mm 1 mps 703 mmHg 75%
20:00 +12°C° 0 mm 1 mps 703 mmHg 75%
21:00 +12°C° 0 mm 1 mps 703 mmHg 76%
22:00 +12°C° 0 mm 1 mps 703 mmHg 75%
23:00 +12°C° 0 mm 1 mps 703 mmHg 75%

19 April, Monday

Time Temperature Precipitation Wind Pressure Humidity
00:00 +12°C° 0 mm 2 mps 703 mmHg 75%
01:00 +12°C° 0 mm 2 mps 703 mmHg 73%
02:00 +13°C° 0 mm 2 mps 703 mmHg 72%
03:00 +13°C° 0 mm 2 mps 703 mmHg 70%
04:00 +13°C° 0 mm 2 mps 703 mmHg 69%
05:00 +13°C° 0 mm 2 mps 703 mmHg 68%
06:00 +14°C° 0 mm 1 mps 703 mmHg 67%
07:00 +15°C° 0 mm 2 mps 703 mmHg 62%
08:00 +17°C° 0 mm 2 mps 704 mmHg 57%
09:00 +19°C° 0 mm 2 mps 704 mmHg 52%
10:00 +19°C° 0 mm 3 mps 704 mmHg 51%
11:00 +20°C° 0 mm 3 mps 704 mmHg 50%
12:00 +21°C° 0 mm 3 mps 704 mmHg 49%
13:00 +20°C° 0 mm 3 mps 703 mmHg 49%
14:00 +20°C° 0 mm 3 mps 703 mmHg 50%
15:00 +20°C° 0 mm 3 mps 703 mmHg 51%
16:00 +18°C° 0 mm 2 mps 702 mmHg 56%
17:00 +17°C° 0 mm 2 mps 702 mmHg 62%
18:00 +15°C° 0 mm 1 mps 702 mmHg 68%
19:00 +15°C° 0 mm 1 mps 702 mmHg 68%
20:00 +14°C° 0 mm 1 mps 702 mmHg 68%
21:00 +13°C° 0 mm 1 mps 702 mmHg 69%
22:00 +13°C° 0 mm 1 mps 702 mmHg 68%
23:00 +13°C° 0 mm 1 mps 701 mmHg 67%

20 April, Tuesday

Time Temperature Precipitation Wind Pressure Humidity
00:00 +13°C° 0 mm 1 mps 701 mmHg 66%
01:00 +13°C° 0 mm 1 mps 701 mmHg 65%
02:00 +13°C° 0 mm 1 mps 700 mmHg 64%
03:00 +13°C° 0 mm 1 mps 700 mmHg 64%
04:00 +14°C° 0 mm 1 mps 700 mmHg 62%
05:00 +14°C° 0 mm 1 mps 700 mmHg 60%
06:00 +15°C° 0 mm 1 mps 700 mmHg 59%
07:00 +18°C° 0 mm 1 mps 699 mmHg 54%
08:00 +20°C° 0 mm 1 mps 699 mmHg 50%
09:00 +22°C° 0 mm 1 mps 699 mmHg 45%
10:00 +24°C° 0 mm 2 mps 699 mmHg 44%
11:00 +25°C° 0 mm 2 mps 698 mmHg 44%
12:00 +26°C° 0 mm 2 mps 698 mmHg 43%
13:00 +26°C° 0 mm 2 mps 697 mmHg 42%
14:00 +27°C° 0 mm 2 mps 697 mmHg 41%
15:00 +27°C° 0 mm 2 mps 696 mmHg 40%
16:00 +26°C° 0 mm 2 mps 696 mmHg 46%
17:00 +24°C° 0 mm 2 mps 696 mmHg 52%
18:00 +21°C° 0 mm 2 mps 696 mmHg 58%
19:00 +21°C° 0 mm 3 mps 696 mmHg 54%
20:00 +21°C° 0 mm 3 mps 696 mmHg 49%
21:00 +21°C° 0 mm 3 mps 697 mmHg 45%
22:00 +19°C° 0 mm 4 mps 698 mmHg 52%
23:00 +17°C° 0 mm 4 mps 699 mmHg 59%
Show more

We Need Your Consent

Meteoprog and our Service Providers may store and access personal data such as cookies, device identifiers or other similar technologies on your device and process such data to personalise content and ads, as well as provide social media features and to analyse the traffic.

  • Store and/or access information on your device

    Cookies, device identifiers or other information can be stored or accessed on your device for the purposes indicated above.

  • Personalised ads and content, ad and content measurement, audience insights, and products development

    Ads and content can be personalised based on a profile. More data can be added to better personalise ads and content. Ad and content performance can be measured. Insights about the audience who saw the ads and content can be derived. Such data can be used to develop or improve user’s experience, systems and software.

By clicking ‘I Agree’ you will allow the use of indicated cookies, device identifiers, web beacons or other similar technologies. Your settings can be changed in the browser on your device.

For certain purposes, legitimate interests may be relied on, rather than consent. You can read more about this in our Privacy and Cookie Policy.